{"data":{"norad_id":54681,"epoch":"2026-05-25T00:14:38.846112Z","epoch_age_seconds":84226,"freshness":"FRESH","line1":"1 54681U 22166AR  26145.01017183 -.00000068  00000+0 -19669-3 0  9999","line2":"2 54681  87.9251 248.5897 0001999  93.5325 266.6038 13.21826425168477","mean_motion":13.21826425,"eccentricity":0.0001999,"inclination_deg":87.9251,"raan_deg":248.5897,"arg_perigee_deg":93.5325,"mean_anomaly_deg":266.6038,"bstar":-0.00019669,"rev_number":16847,"period_min":108.94017344221,"perigee_km":1176.2413266027,"apogee_km":1179.2621709245,"semimajor_km":7555.8887487636,"source":"CELESTRAK","updated_at":"2026-05-25T13:38:22.638744Z"}}